KUIPER-00167

Last updated on Mon Oct 20 2025 00:02:06 GMT+0000 (Coordinated Universal Time)

1 65780U 25217U 25292.26379930 .00060148 00000+0 17025-2 0 9997 2 65780 51.8686 327.8899 0005620 178.4701 181.6303 15.35705311 3667
UTC large
Height (km)
Speed (km/s)
/
Latitude / Longitude
Inclination (degrees)
Orbital Period (minutes)
Azimuth
Elevation
Range (km)
Doppler Factor

Next 0 passes for location: London (51.5072 / 0.1276)

Sorry there are no passes over London.